BG5HLN-13 Weather Reports


time (UTC)temp
C
wind
direction
speed
KPH
gust
KPH
rain 1hr
cm
rain 24hr
cm
rain mn
cm
humidity
%
barometer
mb
20260508065000 23 0 0.0 0.0 0.00 0.00 0.00 56 1019.2
20260508064000 23 0 0.0 0.0 0.00 0.00 0.00 55 1019.1
20260508063001 23 0 0.0 0.0 0.00 0.00 0.00 56 1019.4
20260508062000 23 0 0.0 0.0 0.00 0.00 0.00 55 1018.8
20260508061000 23 0 0.0 0.0 0.00 0.00 0.00 55 1019.2
20260508055959 23 0 0.0 0.0 0.00 0.00 0.00 55 1019.3
20260508055000 23 0 0.0 0.0 0.00 0.00 0.00 54 1019.5
20260508054000 23 0 0.0 0.0 0.00 0.00 0.00 51 1019.6
20260508053002 23 0 0.0 0.0 0.00 0.00 0.00 51 1019.8
20260508053000 23 315 0.0 0.0 0.00 0.00 0.00 51 1019.8
20260508052000 23 270 0.0 0.0 0.00 0.00 0.00 51 1020.2
20260508050959 23 0 0.0 0.0 0.00 0.00 0.00 49 1020.5
20260508050000 23 0 0.0 0.0 0.00 0.00 0.00 48 1020.4
20260508045000 23 0 0.0 0.0 0.00 0.00 0.00 48 1020.5
20260508044000 23 0 0.0 0.0 0.00 0.00 0.00 49 1020.1
20260508043000 23 0 0.0 0.0 0.00 0.00 0.00 49 1020.0
20260508041959 22 0 0.0 0.0 0.00 0.00 0.00 51 1020.1
20260508040959 22 0 0.0 0.0 0.00 0.00 0.00 50 1020.1
20260508035958 22 0 0.0 0.0 0.00 0.00 0.00 51 1020.5
20260508034958 22 0 0.0 0.0 0.00 0.00 0.00 52 1020.2
20260508033959 22 0 0.0 0.0 0.00 0.00 0.00 54 1020.4
20260508032316 23 0 0.0 0.0 0.00 0.00 0.00 54 1020.2
20260508031313 23 0 0.0 0.0 0.00 0.00 0.00 55 1020.3
20260508030315 23 0 0.0 0.0 0.00 0.00 0.00 55 1020.4
20260508025315 22 0 0.0 0.0 0.00 0.00 0.00 54 1020.2
20260508024313 22 0 0.0 0.0 0.00 0.00 0.00 55 1020.3
20260508023315 22 0 0.0 0.0 0.00 0.00 0.00 55 1020.5
20260508022315 22 0 0.0 0.0 0.00 0.00 0.00 56 1020.5
20260508021316 22 0 0.0 0.0 0.00 0.00 0.00 56 1020.6
20260508021313 22 0 0.0 0.0 0.00 0.00 0.00 55 1020.6
20260508020315 21 270 0.0 0.0 0.00 0.00 0.00 57 1020.5
20260508015315 21 0 0.0 0.0 0.00 0.00 0.00 57 1020.7
20260508014313 21 0 0.0 0.0 0.00 0.00 0.00 60 1020.9
20260508013314 21 0 0.0 0.0 0.00 0.00 0.00 62 1021.1
20260508012315 22 0 0.0 0.0 0.00 0.00 0.00 62 1021.1
20260508011312 22 0 0.0 0.0 0.00 0.00 0.00 61 1021.0
20260508010315 22 68 0.0 0.0 0.00 0.00 0.00 61 1021.0
20260508005315 22 0 0.0 0.0 0.00 0.00 0.00 61 1021.0
20260508004312 22 270 0.0 0.0 0.00 0.00 0.00 63 1020.7
20260508003315 21 0 0.0 0.0 0.00 0.00 0.00 65 1020.3
20260508002314 21 0 0.0 0.0 0.00 0.00 0.00 65 1020.5
20260508001315 21 270 0.0 0.0 0.00 0.00 0.00 65 1020.5
20260508001312 21 0 0.0 0.0 0.00 0.00 0.00 66 1020.5
20260508000315 21 0 0.0 0.0 0.00 0.00 0.00 67 1020.4
20260507235314 21 0 0.0 0.0 0.00 0.00 0.00 67 1020.4
20260507234313 21 0 0.0 0.0 0.00 0.00 0.00 68 1020.4
20260507233314 20 0 0.0 0.0 0.00 0.00 0.00 67 1020.4
20260507232314 21 0 0.0 0.0 0.00 0.00 0.00 69 1020.5
20260507231312 20 0 0.0 0.0 0.00 0.00 0.00 68 1020.2
20260507230314 21 0 0.0 0.0 0.00 0.00 0.00 69 1019.8
20260507225315 20 270 0.0 0.0 0.00 0.00 0.00 69 1019.6
20260507224312 20 0 0.0 0.0 0.00 0.00 0.00 71 1019.8
20260507223314 20 0 0.0 0.0 0.00 0.00 0.00 70 1019.7
20260507222314 20 315 0.0 0.0 0.00 0.00 0.00 69 1019.4
20260507221312 20 0 0.0 0.0 0.00 0.00 0.00 69 1019.1
20260507220314 20 0 0.0 0.0 0.00 0.00 0.00 69 1019.2
20260507215315 20 0 0.0 0.0 0.00 0.00 0.00 69 1019.1
20260507214313 20 0 0.0 0.0 0.00 0.00 0.00 68 1018.8
20260507213314 20 0 0.0 0.0 0.00 0.00 0.00 67 1019.0
20260507212314 21 0 0.0 0.0 0.00 0.00 0.00 67 1018.9
20260507211314 21 0 0.0 0.0 0.00 0.00 0.00 67 1018.9
20260507211312 21 270 0.0 0.0 0.00 0.00 0.00 67 1018.9
20260507210314 21 0 0.0 0.0 0.00 0.00 0.00 67 1018.7
20260507205314 21 0 0.0 0.0 0.00 0.00 0.00 68 1018.7
20260507204312 21 0 0.0 0.0 0.00 0.00 0.00 67 1018.5
20260507203314 21 0 0.0 0.0 0.00 0.00 0.00 67 1018.5
20260507202313 21 0 0.0 0.0 0.00 0.00 0.00 66 1018.4
20260507201314 21 270 0.0 0.0 0.00 0.00 0.00 66 1018.3
20260507201312 21 0 0.0 0.0 0.00 0.00 0.00 66 1018.3
20260507200313 21 0 0.0 0.0 0.00 0.00 0.00 66 1018.3
20260507195313 21 0 0.0 0.0 0.00 0.00 0.00 66 1018.2
20260507194313 21 270 0.0 0.0 0.00 0.00 0.00 67 1018.2
20260507193313 21 0 0.0 0.0 0.00 0.00 0.00 67 1018.2
20260507192314 21 0 0.0 0.0 0.00 0.00 0.00 66 1018.0
20260507191310 21 0 0.0 0.0 0.00 0.00 0.00 67 1017.8
20260507190313 21 0 0.0 0.0 0.00 0.00 0.00 66 1017.6
20260507185313 21 0 0.0 0.0 0.00 0.00 0.00 67 1017.6
20260507184313 21 0 0.0 0.0 0.00 0.00 0.00 67 1017.5
20260507184311 21 270 0.0 0.0 0.00 0.00 0.00 67 1017.6
20260507183313 21 270 0.0 0.0 0.00 0.00 0.00 67 1017.6
20260507182313 21 0 0.0 0.0 0.00 0.00 0.00 67 1017.5
20260507181314 21 270 0.0 0.0 0.00 0.00 0.00 67 1017.3
20260507181310 21 270 0.0 0.0 0.00 0.00 0.00 67 1017.4
20260507180312 21 0 0.0 0.0 0.00 0.00 0.00 66 1017.4
20260507175314 21 0 0.0 0.0 0.00 0.00 0.00 67 1017.3
20260507174313 21 270 0.0 0.0 0.00 0.00 0.00 67 1017.1
20260507174310 21 0 0.0 0.0 0.00 0.00 0.00 67 1017.1
20260507173313 21 0 0.0 0.0 0.00 0.00 0.00 67 1017.1
20260507172313 21 0 0.0 0.0 0.00 0.00 0.00 68 1017.2
20260507171312 21 0 0.0 0.0 0.00 0.00 0.00 68 1017.0
20260507171310 21 0 0.0 0.0 0.00 0.00 0.00 68 1017.0
20260507170312 21 0 0.0 0.0 0.00 0.00 0.00 68 1017.1
20260507165313 21 90 0.0 0.0 0.00 0.00 0.00 69 1017.2
20260507164310 21 0 0.0 0.0 0.00 0.00 0.00 69 1017.1
20260507163312 21 0 0.0 0.0 0.00 0.00 0.00 69 1017.2
20260507162313 21 270 0.0 0.0 0.00 0.00 0.00 69 1017.1
20260507161312 21 0 0.0 0.0 0.00 0.00 0.00 70 1017.1
20260507161310 21 0 0.0 0.0 0.00 0.00 0.00 70 1017.1
20260507160312 21 0 0.0 0.0 0.00 0.00 0.00 70 1017.3
20260507155312 22 0 0.0 0.0 0.00 0.00 0.00 69 1017.0
20260507154310 22 0 0.0 0.0 0.00 0.00 0.00 68 1016.8
20260507153312 22 0 0.0 0.0 0.00 0.00 0.00 68 1016.7
20260507152313 22 0 0.0 0.0 0.00 0.00 0.00 68 1016.5
20260507151312 22 0 0.0 0.0 0.00 0.00 0.00 69 1016.5
20260507151310 22 270 0.0 0.0 0.00 0.00 0.00 69 1016.5
20260507150313 22 0 0.0 0.0 0.00 0.00 0.00 69 1016.4
20260507145313 22 0 0.0 0.0 0.00 0.00 0.00 71 1016.2
20260507144312 22 0 0.0 0.0 0.00 0.00 0.00 71 1016.2
20260507144310 22 0 0.0 0.0 0.00 0.00 0.00 71 1016.2
20260507143313 22 0 0.0 0.0 0.00 0.00 0.00 71 1016.1
20260507142312 22 0 0.0 0.0 0.00 0.00 0.00 73 1016.0
20260507141310 22 0 0.0 0.0 0.00 0.00 0.00 74 1015.7
20260507140312 22 0 0.0 0.0 0.00 0.00 0.00 76 1015.5
20260507135312 22 0 0.0 0.0 0.00 0.00 0.00 75 1015.1
20260507134312 22 0 0.0 0.0 0.00 0.00 0.00 75 1014.7
20260507134310 22 270 0.0 0.0 0.00 0.00 0.00 75 1014.7
20260507133313 22 0 0.0 0.0 0.00 0.00 0.00 75 1014.7
20260507132311 23 0 0.0 0.0 0.00 0.00 0.00 75 1014.4
20260507131312 23 0 0.0 0.0 0.00 0.00 0.00 75 1014.7
20260507131309 23 315 0.0 0.0 0.00 0.00 0.00 75 1014.7
20260507130312 23 0 0.0 0.0 0.00 0.00 0.00 75 1014.6
20260507125312 23 0 0.0 0.0 0.00 0.00 0.00 75 1014.3
20260507124309 23 0 0.0 0.0 0.00 0.00 0.00 76 1013.9
20260507123312 23 0 0.0 0.0 0.00 0.00 0.00 76 1013.6
20260507122312 23 0 0.0 0.0 0.00 0.00 0.00 75 1013.3
20260507121312 24 0 0.0 0.0 0.00 0.00 0.00 75 1013.1
20260507121309 24 0 0.0 0.0 0.00 0.00 0.00 75 1013.1
20260507120312 24 0 0.0 0.0 0.00 0.00 0.00 75 1012.9
20260507115312 25 0 0.0 0.0 0.00 0.00 0.00 75 1012.6
20260507114309 25 0 0.0 0.0 0.00 0.00 0.00 75 1012.3
20260507113312 25 0 0.0 0.0 0.00 0.00 0.00 74 1012.0
20260507112312 25 0 0.0 0.0 0.00 0.00 0.00 74 1011.8
20260507111308 26 0 0.0 0.0 0.00 0.00 0.00 73 1011.5
20260507110311 26 0 0.0 0.0 0.00 0.00 0.00 74 1011.2
20260507105312 26 0 0.0 0.0 0.00 0.00 0.00 72 1010.8
20260507104309 26 0 0.0 0.0 0.00 0.00 0.00 72 1010.6
20260507103311 26 0 0.0 0.0 0.00 0.00 0.00 72 1010.4
20260507102312 26 0 0.0 0.0 0.00 0.00 0.00 72 1010.3
20260507101312 26 0 0.0 0.0 0.00 0.00 0.00 71 1010.3
20260507101308 26 0 0.0 0.0 0.00 0.00 0.00 71 1010.2
20260507100311 27 0 0.0 0.0 0.00 0.00 0.00 71 1010.0
20260507095311 27 0 0.0 0.0 0.00 0.00 0.00 71 1009.8
20260507094311 27 68 0.0 0.0 0.00 0.00 0.00 69 1009.8
20260507094308 27 0 0.0 0.0 0.00 0.00 0.00 69 1009.8
20260507093311 27 0 0.0 0.0 0.00 0.00 0.00 67 1009.8
20260507092311 27 0 0.0 0.0 0.00 0.00 0.00 66 1009.7
20260507091308 27 0 0.0 0.0 0.00 0.00 0.00 65 1009.6
20260507090311 27 90 0.0 0.0 0.00 0.00 0.00 63 1009.5
20260507085311 27 0 0.0 0.0 0.00 0.00 0.00 62 1009.4
20260507084308 27 0 0.0 0.0 0.00 0.00 0.00 61 1009.3
20260507083311 27 0 0.0 0.0 0.00 0.00 0.00 68 1009.3
20260507082311 27 0 0.0 0.0 0.00 0.00 0.00 78 1009.2
20260507081310 27 0 0.0 0.0 0.00 0.00 0.00 78 1009.1
20260507081308 27 0 0.0 0.0 0.00 0.00 0.00 78 1009.2
20260507080311 28 0 0.0 0.0 0.00 0.00 0.00 77 1009.0
20260507075310 28 0 0.0 0.0 0.00 0.00 0.00 77 1008.9
20260507074310 28 0 0.0 0.0 0.00 0.00 0.00 74 1008.8
20260507074308 28 0 0.0 0.0 0.00 0.00 0.00 74 1008.7
20260507073311 28 0 0.0 0.0 0.00 0.00 0.00 75 1008.6
20260507072310 28 0 0.0 0.0 0.00 0.00 0.00 75 1008.6
20260507071311 28 0 0.0 0.0 0.00 0.00 0.00 72 1008.6
20260507071308 28 0 0.0 0.0 0.00 0.00 0.00 72 1008.6
20260507070310 29 0 0.0 0.0 0.00 0.00 0.00 70 1008.6
20260507065310 29 0 0.0 0.0 0.00 0.00 0.00 69 1008.6